Location: Caltech
(34.1382°N, 118.1253°W)
Time: 23:09:35
(UTC-07:00)

ERBS - Visible Passes

Search period start: 29 July 2015 00:00
Search period end: 08 August 2015 00:00
Orbit: 450 x 462 km, 57.0° (Epoch: 29 July)

Date Brightness Start Highest point End Pass type
(mag) Time Alt. Az. Time Alt. Az. Time Alt. Az.
29 Jul 3.4 04:16:17 10° NNW 04:19:45 48° NE 04:23:13 10° SE visible
29 Jul 5.7 21:06:31 10° W 21:08:51 16° NW 21:11:06 10° N visible
30 Jul 4.2 03:41:12 10° NNW 03:44:28 33° NE 03:47:45 10° ESE visible
30 Jul 4.0 05:19:03 10° W 05:21:24 16° WSW 05:23:38 10° SSW visible
30 Jul 5.4 20:30:39 10° W 20:33:28 21° NW 20:36:16 10° N visible
31 Jul 5.2 03:06:11 10° NNW 03:07:30 17° N 03:07:30 17° N visible
